Content
SEND FEEDBACK

Daily
Averages
Monthly
Summary
United States of America

HERMOSA, SOUTH DAKOTA


Home > North America > United States > South Dakota
Elevation: 3300 feet     Latitude: 43 50N     Longitude: 103 11W

WEATHER
 
SELECT A DAY
Number of Records: 200,482;   Date Range: 1/1/95 - 9/3/14
 
SHARE

PRINT THIS DATA

[ ← Previous Day ]
WEATHER ALMANAC - OCTOBER 1, 2013
[ Next Day → ]
[ °C ]   °F
Weather ElementAverageHighLow
Temperature56.2 °F70 °F (2:52 pm)37.9 °F (5:52 am)
Dewpoint29.2 °F37 °F (11:52 pm)21 °F (10:52 am)
Humidity38.3 %60 % (4:52 am)20 % (10:52 am)
Barometer29.92 in30.02 in (9:52 am)29.82 in (11:52 pm)
Wind Speed8 mph18.4 mph (2:52 pm)
Wind Gust25.3 mph (2:52 pm)
Weather ElementAverage
Visibility10 mi
Wind DirectionSSW (187.8 °)

Weather ElementTotal
Precipitation---
Heating Degree Days11.1 (Base 65)
Growing Degree Days4 (Base 50)
Averaged from 23 records on October 1, 2013
WEATHER CONDITIONS BREAKOUT
WIND DIRECTION BREAKOUT
WEATHER BY HOUR - OCTOBER 1, 2013
[ °C ]   °F
Local TimeTemperatureDewpointHumidityBarometerVisibilityWind DirectionWind SpeedGust SpeedPrecipitationEventsConditions
1:52 AM52.0 °F28.0 °F40 %29.84 in10.0 miWest (260°)4.6 mphClear
2:52 AM48.0 °F27.0 °F44 %29.86 in10.0 miWSW (250°)4.6 mphClear
3:52 AM41.0 °F27.0 °F57 %29.90 in10.0 miWest (270°)3.5 mphClear
4:52 AM39.9 °F27.0 °F60 %29.92 in10.0 miNNW (330°)4.6 mphClear
5:52 AM37.9 °F25.0 °F60 %29.95 in10.0 miWNW (300°)5.8 mphClear
6:52 AM41.0 °F25.0 °F53 %30.01 in10.0 miCalmClear
7:52 AM48.0 °F28.0 °F46 %30.01 in10.0 miWNW (300°)3.5 mphClear
8:52 AM55.9 °F24.1 °F29 %30.01 in10.0 miWest (260°)3.5 mphClear
9:52 AM62.1 °F23.0 °F22 %30.02 in10.0 miNW (310°)6.9 mphClear
10:52 AM63.0 °F21.0 °F20 %30.01 in10.0 miVariable3.5 mphClear
11:52 AM64.9 °F23.0 °F20 %29.98 in10.0 miSouth (190°)6.9 mphClear
12:52 PM66.9 °F27.0 °F22 %29.95 in10.0 miSouth (180°)6.9 mph17.3 mphClear
1:52 PM69.1 °F30.0 °F23 %29.93 in10.0 miSouth (170°)12.7 mph21.9 mphClear
2:52 PM70.0 °F30.0 °F23 %29.91 in10.0 miSouth (180°)18.4 mph25.3 mphClear
3:52 PM70.0 °F32.0 °F25 %29.91 in10.0 miSSE (150°)16.1 mph24.2 mphClear
4:52 PM69.1 °F33.1 °F26 %29.89 in10.0 miSE (140°)16.1 mph24.2 mphClear
5:52 PM66.0 °F34.0 °F30 %29.90 in10.0 miESE (120°)13.8 mphClear
6:52 PM57.9 °F34.0 °F41 %29.90 in10.0 miESE (120°)10.4 mphClear
7:52 PM57.0 °F33.1 °F40 %29.89 in10.0 miESE (120°)11.5 mphClear
8:52 PM53.1 °F33.1 °F47 %29.88 in10.0 miSE (140°)8.1 mphClear
9:52 PM53.1 °F35.1 °F50 %29.86 in10.0 miSW (220°)5.8 mphClear
10:52 PM51.1 °F35.1 °F54 %29.85 in10.0 miSSE (150°)8.1 mphClear
11:52 PM55.9 °F37.0 °F49 %29.82 in10.0 miSSE (160°)8.1 mphClear
Hourly data recorded from KRAP, located miles away from Hermosa, South Dakota







STORIES FROM OUR PARTNERS